| time (UTC) | temp F | wind direction | speed knots | gust knots | rain 1hr in | rain 24hr in | rain mn in | humidity % | barometer mb |
| 20260505065737 | 69 | 250 | 0.9 | 3.5 | 0.00 | 0.00 | 0.00 | 88 | 1010.8 |
| 20260505065234 | 69 | 267 | 1.7 | 2.6 | 0.00 | 0.00 | 0.00 | 87 | 1010.9 |
| 20260505064731 | 69 | 277 | 0.9 | 2.6 | 0.00 | 0.00 | 0.00 | 87 | 1010.9 |
| 20260505064229 | 69 | 221 | 1.7 | 2.6 | 0.00 | 0.00 | 0.00 | 87 | 1011.0 |
| 20260505063727 | 69 | 279 | 1.7 | 1.7 | 0.00 | 0.00 | 0.00 | 87 | 1010.9 |
| 20260505063222 | 69 | 286 | 0.0 | 3.5 | 0.00 | 0.00 | 0.00 | 87 | 1011.0 |
| 20260505062719 | 69 | 261 | 0.9 | 3.5 | 0.00 | 0.00 | 0.00 | 86 | 1011.3 |
| 20260505062217 | 69 | 216 | 0.9 | 4.3 | 0.00 | 0.00 | 0.00 | 86 | 1011.4 |
| 20260505061714 | 69 | 304 | 0.9 | 2.6 | 0.00 | 0.00 | 0.00 | 86 | 1011.2 |
| 20260505061212 | 69 | 293 | 0.9 | 3.5 | 0.00 | 0.00 | 0.00 | 86 | 1011.4 |
| 20260505060709 | 69 | 184 | 0.9 | 3.5 | 0.00 | 0.00 | 0.00 | 86 | 1011.6 |
| 20260505060206 | 69 | 227 | 3.5 | 3.5 | 0.00 | 0.00 | 0.00 | 86 | 1011.3 |
| 20260505055701 | 69 | 182 | 1.7 | 3.5 | 0.00 | 0.00 | 0.00 | 85 | 1011.3 |
| 20260505055157 | 69 | 201 | 1.7 | 4.3 | 0.00 | 0.00 | 0.00 | 85 | 1011.2 |
| 20260505054655 | 69 | 230 | 0.0 | 2.6 | 0.00 | 0.00 | 0.00 | 85 | 1011.3 |
| 20260505054152 | 69 | 258 | 0.0 | 2.6 | 0.00 | 0.00 | 0.00 | 85 | 1011.3 |
| 20260505053650 | 69 | 213 | 1.7 | 3.5 | 0.00 | 0.00 | 0.00 | 85 | 1011.6 |
| 20260505053146 | 69 | 255 | 0.9 | 3.5 | 0.00 | 0.00 | 0.00 | 85 | 1011.6 |
| 20260505052643 | 69 | 276 | 1.7 | 1.7 | 0.00 | 0.00 | 0.00 | 85 | 1011.4 |
| 20260505052140 | 69 | 290 | 0.0 | 2.6 | 0.00 | 0.00 | 0.00 | 84 | 1011.5 |
| 20260505051637 | 69 | 215 | 2.6 | 2.6 | 0.00 | 0.00 | 0.00 | 85 | 1011.7 |
| 20260505051136 | 69 | 187 | 2.6 | 3.5 | 0.00 | 0.00 | 0.00 | 84 | 1011.5 |
| 20260505050633 | 70 | 214 | 2.6 | 2.6 | 0.00 | 0.00 | 0.00 | 84 | 1011.5 |
| 20260505050131 | 70 | 159 | 0.0 | 1.7 | 0.00 | 0.00 | 0.00 | 84 | 1011.7 |
| 20260505041601 | 70 | 226 | 3.5 | 3.5 | 0.00 | 0.00 | 0.00 | 83 | 1011.7 |
| 20260505041059 | 70 | 139 | 1.7 | 5.2 | 0.00 | 0.00 | 0.00 | 83 | 1011.9 |
| 20260505040556 | 70 | 232 | 1.7 | 2.6 | 0.00 | 0.00 | 0.00 | 82 | 1012.1 |
| 20260505040053 | 70 | 216 | 1.7 | 4.3 | 0.00 | 0.00 | 0.00 | 82 | 1012.2 |
| 20260505035549 | 70 | 222 | 2.6 | 3.5 | 0.00 | 0.00 | 0.00 | 82 | 1012.0 |
| 20260505035046 | 70 | 208 | 3.5 | 3.5 | 0.00 | 0.00 | 0.00 | 82 | 1012.3 |
| 20260505034542 | 70 | 212 | 1.7 | 3.5 | 0.00 | 0.00 | 0.00 | 82 | 1012.1 |
| 20260505034039 | 70 | 283 | 1.7 | 4.3 | 0.00 | 0.00 | 0.00 | 82 | 1012.2 |
| 20260505033536 | 70 | 236 | 1.7 | 3.5 | 0.00 | 0.00 | 0.00 | 82 | 1012.2 |
| 20260505033034 | 70 | 271 | 1.7 | 3.5 | 0.00 | 0.00 | 0.00 | 82 | 1012.2 |
| 20260505032532 | 70 | 212 | 3.5 | 5.2 | 0.00 | 0.00 | 0.00 | 81 | 1011.9 |
| 20260505032028 | 70 | 243 | 0.9 | 3.5 | 0.00 | 0.00 | 0.00 | 81 | 1011.9 |
| 20260505031526 | 70 | 118 | 1.7 | 3.5 | 0.00 | 0.00 | 0.00 | 81 | 1012.1 |
| 20260505031022 | 70 | 164 | 0.9 | 4.3 | 0.00 | 0.00 | 0.00 | 81 | 1012.1 |
| 20260505030519 | 70 | 163 | 2.6 | 3.5 | 0.00 | 0.00 | 0.00 | 81 | 1012.0 |
| 20260505030015 | 70 | 265 | 0.0 | 4.3 | 0.00 | 0.00 | 0.00 | 81 | 1012.1 |
| 20260505025510 | 70 | 343 | 1.7 | 4.3 | 0.00 | 0.00 | 0.00 | 80 | 1012.2 |
| 20260505025010 | 71 | 206 | 2.6 | 3.5 | 0.00 | 0.00 | 0.00 | 80 | 1011.8 |
| 20260505024506 | 71 | 230 | 1.7 | 2.6 | 0.00 | 0.00 | 0.00 | 80 | 1012.2 |
| 20260505024004 | 71 | 224 | 3.5 | 3.5 | 0.00 | 0.00 | 0.00 | 80 | 1012.0 |
| 20260505023500 | 71 | 140 | 1.7 | 5.2 | 0.00 | 0.00 | 0.00 | 79 | 1011.9 |
| 20260505022957 | 71 | 233 | 1.7 | 3.5 | 0.00 | 0.00 | 0.00 | 79 | 1012.1 |
| 20260505022455 | 71 | 173 | 0.0 | 2.6 | 0.00 | 0.00 | 0.00 | 79 | 1012.4 |
| 20260505021952 | 71 | 205 | 2.6 | 3.5 | 0.00 | 0.00 | 0.00 | 78 | 1012.2 |
| 20260505021449 | 71 | 235 | 1.7 | 5.2 | 0.00 | 0.00 | 0.00 | 78 | 1012.1 |
| 20260505020944 | 71 | 270 | 1.7 | 4.3 | 0.00 | 0.00 | 0.00 | 78 | 1011.8 |
| 20260505020439 | 71 | 297 | 1.7 | 4.3 | 0.00 | 0.00 | 0.00 | 77 | 1012.0 |
| 20260505015937 | 71 | 253 | 2.6 | 3.5 | 0.00 | 0.00 | 0.00 | 77 | 1011.8 |
| 20260505015434 | 71 | 193 | 2.6 | 4.3 | 0.00 | 0.00 | 0.00 | 76 | 1011.9 |
| 20260505014931 | 72 | 98 | 1.7 | 4.3 | 0.00 | 0.00 | 0.00 | 76 | 1011.9 |
| 20260505014428 | 72 | 193 | 4.3 | 5.2 | 0.00 | 0.00 | 0.00 | 75 | 1012.1 |
| 20260505013925 | 72 | 194 | 3.5 | 6.1 | 0.00 | 0.00 | 0.00 | 75 | 1011.5 |
| 20260505013422 | 72 | 198 | 2.6 | 4.3 | 0.00 | 0.00 | 0.00 | 74 | 1011.9 |
| 20260505012920 | 72 | 184 | 3.5 | 3.5 | 0.00 | 0.00 | 0.00 | 74 | 1011.7 |
| 20260505012418 | 73 | 232 | 2.6 | 4.3 | 0.00 | 0.00 | 0.00 | 73 | 1011.6 |
| 20260505011914 | 73 | 236 | 1.7 | 3.5 | 0.00 | 0.00 | 0.00 | 73 | 1012.0 |
| 20260505011410 | 73 | 215 | 0.9 | 4.3 | 0.00 | 0.00 | 0.00 | 73 | 1011.7 |
| 20260505010907 | 73 | 234 | 2.6 | 4.3 | 0.00 | 0.00 | 0.00 | 72 | 1011.9 |
| 20260505010403 | 73 | 269 | 2.6 | 3.5 | 0.00 | 0.00 | 0.00 | 72 | 1011.7 |
| 20260505005859 | 73 | 234 | 2.6 | 5.2 | 0.00 | 0.00 | 0.00 | 71 | 1011.8 |
| 20260505005356 | 74 | 163 | 1.7 | 5.2 | 0.00 | 0.00 | 0.00 | 70 | 1011.9 |
| 20260505004854 | 74 | 228 | 3.5 | 5.2 | 0.00 | 0.00 | 0.00 | 70 | 1011.7 |
| 20260505004349 | 74 | 186 | 3.5 | 5.2 | 0.00 | 0.00 | 0.00 | 69 | 1011.9 |
| 20260505003847 | 74 | 209 | 3.5 | 5.2 | 0.00 | 0.00 | 0.00 | 69 | 1012.0 |
| 20260505003344 | 74 | 180 | 2.6 | 5.2 | 0.00 | 0.00 | 0.00 | 69 | 1011.8 |
| 20260505002840 | 74 | 154 | 1.7 | 7.0 | 0.00 | 0.00 | 0.00 | 68 | 1011.8 |
| 20260505002337 | 75 | 205 | 4.3 | 5.2 | 0.00 | 0.00 | 0.00 | 68 | 1012.0 |
| 20260505001836 | 75 | 164 | 3.5 | 6.1 | 0.00 | 0.00 | 0.00 | 66 | 1011.8 |
| 20260505001332 | 75 | 322 | 1.7 | 4.3 | 0.00 | 0.00 | 0.00 | 66 | 1011.7 |
| 20260505000829 | 75 | 172 | 2.6 | 6.1 | 0.00 | 0.00 | 0.00 | 65 | 1011.8 |
| 20260505000327 | 75 | 164 | 3.5 | 4.3 | 0.00 | 0.00 | 0.00 | 65 | 1011.8 |
| 20260504235824 | 75 | 147 | 2.6 | 3.5 | 0.00 | 0.00 | 0.00 | 66 | 1011.8 |
| 20260504235321 | 76 | 153 | 2.6 | 9.6 | 0.00 | 0.00 | 0.00 | 65 | 1012.3 |
| 20260504234817 | 76 | 242 | 1.7 | 8.7 | 0.00 | 0.00 | 0.00 | 65 | 1012.1 |
| 20260504234315 | 76 | 132 | 2.6 | 3.5 | 0.00 | 0.00 | 0.00 | 64 | 1012.3 |
| 20260504233811 | 76 | 203 | 1.7 | 7.8 | 0.00 | 0.00 | 0.00 | 62 | 1012.3 |
| 20260504233307 | 76 | 241 | 3.5 | 7.8 | 0.00 | 0.00 | 0.00 | 63 | 1012.3 |
| 20260504232804 | 77 | 142 | 2.6 | 11.3 | 0.00 | 0.00 | 0.00 | 62 | 1012.3 |
| 20260504232301 | 77 | 185 | 8.7 | 8.7 | 0.00 | 0.00 | 0.00 | 62 | 1012.6 |
| 20260504231758 | 77 | 180 | 4.3 | 7.0 | 0.00 | 0.00 | 0.00 | 62 | 1012.6 |
| 20260504231254 | 77 | 249 | 3.5 | 7.0 | 0.00 | 0.00 | 0.00 | 60 | 1012.5 |
| 20260504230750 | 77 | 199 | 4.3 | 7.0 | 0.00 | 0.00 | 0.00 | 60 | 1012.3 |
| 20260504230248 | 77 | 107 | 5.2 | 9.6 | 0.00 | 0.00 | 0.00 | 61 | 1012.3 |
| 20260504225747 | 77 | 22 | 2.6 | 6.1 | 0.00 | 0.00 | 0.00 | 62 | 1012.8 |
| 20260504225243 | 78 | 229 | 4.3 | 7.0 | 0.00 | 0.00 | 0.00 | 60 | 1012.5 |
| 20260504224740 | 78 | 262 | 3.5 | 8.7 | 0.00 | 0.00 | 0.00 | 60 | 1012.7 |
| 20260504224237 | 78 | 178 | 1.7 | 8.7 | 0.00 | 0.00 | 0.00 | 61 | 1012.6 |
| 20260504223734 | 78 | 253 | 1.7 | 7.8 | 0.00 | 0.00 | 0.00 | 60 | 1012.7 |
| 20260504223229 | 77 | 232 | 4.3 | 5.2 | 0.00 | 0.00 | 0.00 | 60 | 1012.8 |
| 20260504222726 | 77 | 294 | 1.7 | 7.8 | 0.00 | 0.00 | 0.00 | 59 | 1012.8 |
| 20260504222223 | 78 | 219 | 1.7 | 5.2 | 0.00 | 0.00 | 0.00 | 60 | 1012.8 |
| 20260504221720 | 77 | 154 | 7.0 | 7.0 | 0.00 | 0.00 | 0.00 | 60 | 1012.6 |
| 20260504221217 | 78 | 149 | 1.7 | 10.4 | 0.00 | 0.00 | 0.00 | 59 | 1012.5 |
| 20260504220714 | 78 | 264 | 3.5 | 8.7 | 0.00 | 0.00 | 0.00 | 58 | 1012.7 |
| 20260504220211 | 78 | 210 | 4.3 | 4.3 | 0.00 | 0.00 | 0.00 | 59 | 1012.8 |
| 20260504215707 | 78 | 187 | 3.5 | 7.8 | 0.00 | 0.00 | 0.00 | 58 | 1012.9 |
| 20260504215205 | 78 | 158 | 3.5 | 7.0 | 0.00 | 0.00 | 0.00 | 58 | 1013.3 |
| 20260504214700 | 79 | 184 | 2.6 | 6.1 | 0.00 | 0.00 | 0.00 | 57 | 1013.2 |
| 20260504214157 | 79 | 202 | 0.9 | 5.2 | 0.00 | 0.00 | 0.00 | 58 | 1013.2 |
| 20260504213654 | 79 | 154 | 2.6 | 5.2 | 0.00 | 0.00 | 0.00 | 59 | 1013.3 |
| 20260504213150 | 78 | 223 | 2.6 | 8.7 | 0.00 | 0.00 | 0.00 | 58 | 1013.1 |
| 20260504212647 | 78 | 172 | 6.1 | 8.7 | 0.00 | 0.00 | 0.00 | 57 | 1013.1 |
| 20260504212144 | 78 | 181 | 7.8 | 9.6 | 0.00 | 0.00 | 0.00 | 57 | 1013.2 |
| 20260504211641 | 79 | 155 | 4.3 | 5.2 | 0.00 | 0.00 | 0.00 | 56 | 1013.4 |
| 20260504211137 | 79 | 200 | 3.5 | 7.0 | 0.00 | 0.00 | 0.00 | 57 | 1013.5 |
| 20260504210635 | 79 | 107 | 2.6 | 6.1 | 0.00 | 0.00 | 0.00 | 57 | 1013.5 |
| 20260504210131 | 80 | 304 | 5.2 | 7.8 | 0.00 | 0.00 | 0.00 | 56 | 1013.5 |
| 20260504205629 | 79 | 217 | 1.7 | 5.2 | 0.00 | 0.00 | 0.00 | 57 | 1013.6 |
| 20260504205126 | 79 | 182 | 4.3 | 11.3 | 0.00 | 0.00 | 0.00 | 56 | 1013.7 |
| 20260504204625 | 80 | 210 | 3.5 | 7.8 | 0.00 | 0.00 | 0.00 | 55 | 1013.9 |
| 20260504204123 | 80 | 192 | 1.7 | 9.6 | 0.00 | 0.00 | 0.00 | 57 | 1014.0 |
| 20260504203622 | 79 | 150 | 3.5 | 7.8 | 0.00 | 0.00 | 0.00 | 56 | 1013.5 |
| 20260504203120 | 78 | 196 | 2.6 | 4.3 | 0.00 | 0.00 | 0.00 | 56 | 1014.0 |
| 20260504202619 | 78 | 195 | 3.5 | 7.0 | 0.00 | 0.00 | 0.00 | 57 | 1013.9 |
| 20260504202116 | 78 | 150 | 3.5 | 7.0 | 0.00 | 0.00 | 0.00 | 57 | 1014.0 |
| 20260504201613 | 79 | 167 | 4.3 | 7.8 | 0.00 | 0.00 | 0.00 | 55 | 1014.2 |
| 20260504201111 | 78 | 151 | 3.5 | 6.1 | 0.00 | 0.00 | 0.00 | 59 | 1014.4 |
| 20260504200608 | 79 | 102 | 5.2 | 8.7 | 0.00 | 0.00 | 0.00 | 57 | 1014.4 |
| 20260504200104 | 79 | 206 | 3.5 | 7.8 | 0.00 | 0.00 | 0.00 | 56 | 1014.5 |
| 20260504195600 | 79 | 154 | 5.2 | 8.7 | 0.00 | 0.00 | 0.00 | 55 | 1014.7 |
| 20260504195057 | 78 | 229 | 1.7 | 7.0 | 0.00 | 0.00 | 0.00 | 55 | 1014.8 |
| 20260504194554 | 80 | 190 | 4.3 | 8.7 | 0.00 | 0.00 | 0.00 | 55 | 1014.9 |
| 20260504194049 | 79 | 223 | 2.6 | 5.2 | 0.00 | 0.00 | 0.00 | 55 | 1014.8 |
| 20260504193546 | 79 | 213 | 2.6 | 7.0 | 0.00 | 0.00 | 0.00 | 54 | 1014.9 |
| 20260504193045 | 80 | 172 | 3.5 | 9.6 | 0.00 | 0.00 | 0.00 | 56 | 1014.9 |
| 20260504192543 | 79 | 150 | 5.2 | 9.6 | 0.00 | 0.00 | 0.00 | 58 | 1014.8 |
| 20260504192040 | 78 | 262 | 2.6 | 7.8 | 0.00 | 0.00 | 0.00 | 55 | 1015.0 |
| 20260504191538 | 79 | 177 | 2.6 | 7.8 | 0.00 | 0.00 | 0.00 | 54 | 1014.9 |
| 20260504191034 | 79 | 125 | 1.7 | 7.8 | 0.00 | 0.00 | 0.00 | 55 | 1015.0 |
| 20260504190531 | 79 | 198 | 4.3 | 6.1 | 0.00 | 0.00 | 0.00 | 52 | 1015.0 |
| 20260504190026 | 77 | 237 | 1.7 | 5.2 | 0.00 | 0.00 | 0.00 | 55 | 1015.2 |
| 20260504185524 | 78 | 205 | 3.5 | 9.6 | 0.00 | 0.00 | 0.00 | 55 | 1015.2 |
| 20260504185020 | 79 | 226 | 4.3 | 6.1 | 0.00 | 0.00 | 0.00 | 55 | 1015.4 |
| 20260504184515 | 79 | 244 | 4.3 | 9.6 | 0.00 | 0.00 | 0.00 | 53 | 1015.3 |
| 20260504184011 | 78 | 168 | 2.6 | 5.2 | 0.00 | 0.00 | 0.00 | 60 | 1015.5 |
| 20260504183509 | 79 | 300 | 2.6 | 9.6 | 0.00 | 0.00 | 0.00 | 55 | 1015.6 |
| 20260504183007 | 80 | 153 | 3.5 | 7.8 | 0.00 | 0.00 | 0.00 | 53 | 1015.6 |
| 20260504182503 | 78 | 251 | 0.0 | 7.0 | 0.00 | 0.00 | 0.00 | 56 | 1015.8 |
| 20260504182000 | 78 | 173 | 9.6 | 10.4 | 0.00 | 0.00 | 0.00 | 56 | 1015.8 |
| 20260504181457 | 79 | 160 | 1.7 | 5.2 | 0.00 | 0.00 | 0.00 | 56 | 1015.6 |
| 20260504180956 | 78 | 193 | 4.3 | 7.8 | 0.00 | 0.00 | 0.00 | 55 | 1015.9 |
| 20260504180455 | 78 | 229 | 5.2 | 6.1 | 0.00 | 0.00 | 0.00 | 55 | 1015.8 |
| 20260504175952 | 79 | 248 | 1.7 | 11.3 | 0.00 | 0.00 | 0.00 | 55 | 1015.6 |
| 20260504175449 | 79 | 198 | 4.3 | 7.0 | 0.00 | 0.00 | 0.00 | 55 | 1015.9 |
| 20260504174947 | 78 | 270 | 4.3 | 8.7 | 0.00 | 0.00 | 0.00 | 54 | 1015.9 |
| 20260504174444 | 78 | 191 | 2.6 | 5.2 | 0.00 | 0.00 | 0.00 | 54 | 1016.1 |
| 20260504173941 | 78 | 237 | 5.2 | 6.1 | 0.00 | 0.00 | 0.00 | 55 | 1016.3 |
| 20260504173437 | 79 | 203 | 2.6 | 7.0 | 0.00 | 0.00 | 0.00 | 55 | 1016.1 |
| 20260504172936 | 78 | 137 | 6.1 | 9.6 | 0.00 | 0.00 | 0.00 | 55 | 1016.1 |
| 20260504172431 | 77 | 249 | 4.3 | 6.1 | 0.00 | 0.00 | 0.00 | 57 | 1016.4 |
| 20260504171928 | 78 | 287 | 4.3 | 6.1 | 0.00 | 0.00 | 0.00 | 55 | 1016.3 |
| 20260504171425 | 79 | 214 | 6.1 | 11.3 | 0.00 | 0.00 | 0.00 | 54 | 1016.4 |
| 20260504170922 | 78 | 242 | 5.2 | 7.0 | 0.00 | 0.00 | 0.00 | 55 | 1016.2 |
| 20260504170418 | 77 | 226 | 3.5 | 5.2 | 0.00 | 0.00 | 0.00 | 58 | 1016.2 |
| 20260504160337 | 76 | 215 | 3.5 | 7.0 | 0.00 | 0.00 | 0.00 | 56 | 1017.1 |
| 20260504150802 | 74 | 133 | 3.5 | 10.4 | 0.00 | 0.00 | 0.00 | 59 | 1017.3 |
| 20260504150258 | 75 | 269 | 2.6 | 7.0 | 0.00 | 0.00 | 0.00 | 59 | 1017.2 |
| 20260504141229 | 71 | 209 | 3.5 | 5.2 | 0.00 | 0.00 | 0.00 | 63 | 1017.3 |
| 20260504140725 | 70 | 209 | 0.9 | 3.5 | 0.00 | 0.00 | 0.00 | 62 | 1017.1 |
| 20260504140220 | 70 | 168 | 3.5 | 4.3 | 0.00 | 0.00 | 0.00 | 62 | 1017.2 |
| 20260504130649 | 64 | 261 | 2.6 | 3.5 | 0.00 | 0.00 | 0.00 | 75 | 1017.1 |
| 20260504130145 | 63 | 219 | 1.7 | 1.7 | 0.00 | 0.00 | 0.00 | 78 | 1017.1 |
| 20260504120110 | 56 | 331 | 0.0 | 1.7 | 0.00 | 0.00 | 0.00 | 91 | 1016.5 |
| 20260504110537 | 56 | 308 | 1.7 | 2.6 | 0.00 | 0.00 | 0.00 | 89 | 1016.7 |
| 20260504100459 | 57 | 319 | 0.9 | 1.7 | 0.00 | 0.00 | 0.00 | 86 | 1016.5 |
| 20260504081852 | 58 | 291 | 1.7 | 1.7 | 0.00 | 0.00 | 0.00 | 84 | 1017.1 |
| 20260504081349 | 58 | 302 | 1.7 | 2.6 | 0.00 | 0.00 | 0.00 | 84 | 1017.3 |
| 20260504080844 | 58 | 333 | 1.7 | 1.7 | 0.00 | 0.00 | 0.00 | 84 | 1017.3 |
| 20260504080342 | 58 | 341 | 1.7 | 1.7 | 0.00 | 0.00 | 0.00 | 84 | 1017.3 |
| 20260504070309 | 59 | 330 | 1.7 | 2.6 | 0.00 | 0.00 | 0.00 | 81 | 1017.8 |